Regional Weather Roundup
Issued by NWS Sterling, VA

Home | Current Version | Previous Version | Graphics & Text | Print | Product List | Glossary On
Versions: 1 2 3 4 5 6 7 8 9 10 11 12 13 14 15 16 17 18 19 20 21 22 23 24 25 26 27 28 29 30 31 32 33 34 35 36 37 38 39 40 41 42 43 44 45 46 47 48 49 50
048
ASUS41 KLWX 301110
RWRLWX

REGIONAL WEATHER ROUNDUP
NATIONAL WEATHER SERVICE BALTIMORE MD/WASHINGTON DC
700 AM EDT SAT APR 30 2016

Note: "FAIR" indicates few or no clouds below 12,000 feet
with no significant weather and/or obstructions to visibility.
 TC=TEMPERATURE CELSIUS

 * =Non NWS site. Station does not report precipitation (e.g. rain,
    snow, etc.), thunder, or fog.

DCZ001-MDZ009-015-VAZ040>042-051-053>054-301200-
WASHINGTON METRO

CITY           SKY/WX    TMP DP  RH WIND       PRES   REMARKS
WASHINGTON NAT CLOUDY    51  48  89 E12       30.17R
DULLES         CLOUDY    51  49  92 E5        30.16R FOG
ANDREWS AFB    CLOUDY    49  47  94 NE8       30.16R
FT BELVOIR     CLOUDY    52  49  89 VRB1      30.17R
QUANTICO       CLOUDY    53  50  89 E10       30.17R
COLLEGE PARK*  CLOUDY    48  45  87 E3        30.17R
LEESBURG*      CLOUDY    52  52 100 CALM      30.16R FOG
GAITHERSBURG*  CLOUDY    48  46  93 CALM      30.21R

$$

MDZ006>007-011-014-301200-
BALTIMORE METRO

CITY           SKY/WX    TMP DP  RH WIND       PRES   REMARKS
BWI AIRPORT    CLOUDY    49  44  83 NE8       30.18R
MD SCIENCE CTR   N/A     50  44  80 MISG      30.19R
MARTIN STATE   CLOUDY    48  46  93 CALM      30.20R
ANNAPOLIS      CLOUDY    50  46  86 MISG      30.18R
FORT MEADE*    CLOUDY    48  45  87 CALM      30.21R

$$

MDZ012-015-019>023-301200-
MARYLAND EASTERN SHORE

CITY           SKY/WX    TMP DP  RH WIND       PRES   REMARKS
OCEAN CITY     CLOUDY    50  48  93 NE12      30.15R
SALISBURY      CLOUDY    49  48  97 NE8       30.15S FOG
CAMBRIDGE*     CLOUDY    46  45  93 NE3       30.16R
EASTON*        CLOUDY   N/A N/A N/A NE9       30.20R

$$

MDZ017>025-301200-
SOUTHERN MARYLAND

CITY           SKY/WX    TMP DP  RH WIND       PRES   REMARKS
PATUXENT RIVER CLOUDY    50  46  86 NE9       30.16R
ST INIGOES       N/A    N/A N/A N/A MISG        N/A
LEONARDTOWN*   CLOUDY    50  46  87 NE3       30.17S

$$

MDZ003>005-301200-
NORTH CENTRAL MARYLAND

CITY           SKY/WX    TMP DP  RH WIND       PRES   REMARKS
FREDERICK*     FOG       48  48 100 N8        30.20R VSB 1
HAGERSTOWN APT CLOUDY    49  47  93 NE6       30.16R FOG
WESTMINSTER*   FOG       46  45  93 CALM      30.17R VSB 1/2

$$

MDZ501>502-301200-
WESTERN MARYLAND

CITY           SKY/WX    TMP DP  RH WIND       PRES   REMARKS
OAKLAND*       FOG       43  43 100 SE8       30.11R VSB<1/4
CUMBERLAND*    CLOUDY    52  50  93 CALM      30.19R

$$

VAZ025>031-301200-
SHENANDOAH VALLEY

CITY           SKY/WX    TMP DP  RH WIND       PRES   REMARKS
WINCHESTER*    FOG       50  50 100 NE3       30.15R VSB 1/4
FRONT ROYAL*   CLOUDY    50  50 100 CALM      30.14R
LURAY*         CLOUDY    52  52 100 NE3       30.14R FOG
NEW MARKET*    CLOUDY    51  50  99 CALM      30.13R
STAUNTON*      CLOUDY    54  53  97 NW3       30.16R FOG
WAYNESBORO*    CLOUDY    51  49  96 MISG      30.14R

$$

WVZ021-048>050-054>055-301200-
EASTERN WEST VIRGINIA PANHANDLE

CITY           SKY/WX    TMP DP  RH WIND       PRES   REMARKS
MARTINSBURG    CLOUDY    50  48  93 NE6       30.15R FOG
PETERSBURG*    CLOUDY    54  51  90 CALM      30.15R FOG

$$

VAZ036>039-050-301200-
CENTRAL FOOTHILLS

CITY           SKY/WX    TMP DP  RH WIND       PRES   REMARKS
CHARLOTTESVILL CLOUDY    54  51  90 CALM      30.15R
CULPEPER*      CLOUDY    53  52  98 CALM      30.16R FOG
ORANGE*        CLOUDY    52  52 100 CALM      30.17R FOG
GORDONSVILLE*  CLOUDY    52  52 100 CALM      30.15R FOG
WARRENTON*     CLOUDY    53  48  83 CALM      30.14R HAZE

$$

VAZ055>057-301200-
NORTH AND CENTRAL PIEDMONT

CITY           SKY/WX    TMP DP  RH WIND       PRES   REMARKS
FREDERICKSBRG* CLOUDY    53  53 100 CALM      30.15R
STAFFORD*      CLOUDY    52  49  89 CALM      30.19R

$$

NCZ024-NYZ072-PAZ021-071-VAZ022-071-301200-
OTHER REGIONAL OBSERVATIONS

CITY           SKY/WX    TMP DP  RH WIND       PRES   REMARKS
NEW YORK CITY  CLOUDY    48  37  65 VRB3      30.24R
PHILADELPHIA   CLOUDY    49  38  65 NE8       30.20S
PITTSBURGH     CLOUDY    46  41  82 NE5       30.12S
ROANOKE        CLOUDY    55  54  96 SE8       30.13R
RICHMOND       CLOUDY    52  50  93 NE5       30.14R
RALEIGH        CLOUDY    57  57 100 E8        30.11R FOG

$$

ANZ530>537-301200-
MARINE OBSERVATIONS

STATION/POSITION TIME  TEMP    WIND        PRES
                       AIR SEA DIR/SP/G
                 (UTC) (F)     (DEG/KT/KT) (MB)
THOMAS PT LIGHT  1100   49 57   50/  8/ 10 1023.2R
BALT KEY BRIDGE  1000   49      30/  8/  9 1021.2R
COVE POINT       1000   49      60/  9/ 11 1021.2R
LEWISETTA        1000   52 59   50/  7/ 11 1020.0R
SOLOMONS ISLAND  1000   51 59   40/  7/  9   N/A
PINEY POINT      1000           60/  5/  7   N/A

$$





USA.gov is the U.S. government's official web portal to all federal, state and local government web resources and services.